User: anonymous   Login
Location: Ottawa
(45.4170°N, 75.7000°W)
Time: 00:31:30
(UTC-04:00)
Language:

Aureole 3 Rocket - Orbit

View from above orbital plane
View from above orbital plane
View from above satellite
View from above satellite

Ground track
Ground track

The orbit data is extracted from the following two-line orbital elements,

1 12849U 81094B   16237.59338630  .00000678  00000-0  59046-4 0  9991
2 12849  82.4922  34.2966 0905080 132.3238 235.8295 13.49911119701918
Epoch (UTC): 24 August 2016 14:14:28
Eccentricity: 0.0905080
inclination: 82.4922°
perigee height: 398 km
apogee height: 1747 km
right ascension of ascending node: 34.2966°
argument of perigee: 132.3238°
revolutions per day: 13.49911119
mean anomaly at epoch: 235.8295°
orbit number at epoch: 70191

The dashed part of the orbit path shows where the satellite is in the earth's shadow,  

DLR